Regional Weather Roundup
Issued by NWS Kansas City/Pleasant Hill, MO

Home | Current Version | Previous Version | Text Only | Print | Product List | Glossary On
Versions: 1 2 3 4 5 6 7 8 9 10 11 12 13 14 15 16 17 18 19 20 21 22 23 24 25 26 27 28 29 30 31 32 33 34 35 36 37 38 39 40 41 42 43 44 45 46 47 48 49
342
ASUS43 KEAX 231210
RWREAX

WEATHER ROUNDUP FOR EASTERN KANSAS AND NORTHWEST MISSOURI
NATIONAL WEATHER SERVICE KANSAS CITY/PLEASANT HILL MO
700 AM CDT MON MAY 23 2016

KSZ040-057-103>105-MOZ028-029-037-043-231300-
...KANSAS CITY METROPOLITAN AREA...

CITY           SKY/WX    TMP DP  RH WIND       PRES   REMARKS
K.C. INTL      CLOUDY    65  56  72 S14       29.87S
6HR MIN TEMP:  64; 6HR MAX TEMP:  69;

K.C. DOWNTOWN  CLOUDY    66  55  67 S12       29.88R
6HR MIN TEMP:  66; 6HR MAX TEMP:  71;

LEES SUMMIT    CLOUDY    63  54  72 SE12      29.90S
6HR MIN TEMP:  62; 6HR MAX TEMP:  67;

OLATHE - IXD   CLOUDY    63  56  78 S14       29.88S
6HR MIN TEMP:  63; 6HR MAX TEMP:  67;

OLATHE - OJC   CLOUDY    61  55  81 SE13      29.88S
6HR MIN TEMP:  60; 6HR MAX TEMP:  66;

LAWRENCE       PTCLDY    65  57  75 SE9       29.87R

$$

MOZ001>008-011>017-020>025-030>033-038>040-044>046-053-054-231300-
...NORTHERN AND CENTRAL MISSOURI...

CITY           SKY/WX    TMP DP  RH WIND       PRES   REMARKS
ST. JOSEPH     MOSUNNY   64  56  75 S7        29.87R
6HR MIN TEMP:  62; 6HR MAX TEMP:  69;

MOSBY          CLOUDY    63  54  72 SE7       29.89S
WARRENSBURG    CLOUDY    59  52  77 SE7       29.92S
WHITEMAN AFB   MOSUNNY   61  53  75 S8        29.92S
6HR MIN TEMP:  60; 6HR MAX TEMP:  65;

CLINTON        CLOUDY    61  54  77 SE6       29.94S
SEDALIA        CLOUDY    61  52  72 SE9       29.95S
6HR MIN TEMP:  59; 6HR MAX TEMP:  64;

WARSAW         NOT AVBL
CHILLICOTHE      N/A     63  54  72 S5        29.93R
6HR MIN TEMP:  59; 6HR MAX TEMP:  65;

KIRKSVILLE     CLOUDY    61  51  70 S7        29.97R
6HR MIN TEMP:  53; 6HR MAX TEMP:  61;


$$

MOZ041-047>049-056>058-063>065-088>090-097-231300-
...EASTERN AND SOUTHERN MISSOURI...

CITY           SKY/WX    TMP DP  RH WIND       PRES   REMARKS
ST. LOUIS INTL MOSUNNY   60  51  72 E3        30.01R
6HR MIN TEMP:  57; 6HR MAX TEMP:  67;

SPIRIT OF STL  CLOUDY    55  52  89 CALM      30.01R
COLUMBIA       CLOUDY    58  50  75 S7        29.98S
JEFFERSON CITY CLOUDY    54  51  90 CALM      29.97F
ROLLA          MOSUNNY   59  48  67 S7        29.98S
SPRINGFIELD    CLOUDY    63  47  55 SE13      29.95R
BRANSON        CLOUDY    55  50  82 SE7       29.98F
JOPLIN         CLOUDY    62  53  72 SE12      29.90S
WEST PLAINS    CLOUDY    52  49  89 CALM      30.01S

$$

IAZ060-094-KSZ022-034>040-054-083-096-NEZ052-066-093-231300-
...KANSAS...SOUTHEAST NEBRASKA AND IOWA...

CITY           SKY/WX    TMP DP  RH WIND       PRES   REMARKS
TOPEKA         CLOUDY    66  58  75 SE7       29.85R
6HR MIN TEMP:  66; 6HR MAX TEMP:  69;

MANHATTAN      CLOUDY    68  61  78 SW7       29.85R
EMPORIA        CLOUDY    65  58  78 S17G24    29.84R
CHANUTE        CLOUDY    66  55  67 SE14      29.86R
WICHITA        CLOUDY    69  63  81 S21       29.82R
OMAHA          CLOUDY    68  60  75 S16       29.81S
LINCOLN        PTCLDY    68  63  84 S9        29.80R
FALLS CITY     PTCLDY    66  59  78 S8        29.85R
LAMONI         SUNNY     60  52  74 S9        29.89S
DES MOINES     CLOUDY    62  50  64 S10       29.88S

$$





USA.gov is the U.S. government's official web portal to all federal, state and local government web resources and services.